DM5RC Weather Reports


Display with metric or nautical units.
time (UTC)temp
F
wind
direction
speed
MPH
gust
MPH
rain 1hr
in
rain 24hr
in
rain mn
in
humidity
%
barometer
mb
20260505050324 59 57 3.0 7.0 0.00 0.00 0.00 85 1008.7
20260505041314 59 27 1.0 3.0 0.00 0.00 0.00 85 1009.0
20260505040904 59 6 1.0 5.0 0.00 0.00 0.00 85 1009.0
20260505040328 59 16 2.0 7.0 0.00 0.00 0.00 84 1009.0
20260505035830 59 34 4.0 7.0 0.00 0.00 0.00 84 1009.0
20260505035331 59 57 2.0 5.0 0.00 0.00 0.00 84 1009.0
20260505034813 59 40 2.0 6.0 0.00 0.00 0.00 84 1008.9
20260505034326 59 56 3.0 6.0 0.00 0.00 0.00 84 1008.9
20260505033827 59 41 3.0 6.0 0.00 0.00 0.00 83 1008.9
20260505033328 59 70 3.0 4.0 0.00 0.00 0.00 83 1008.9
20260505032829 60 33 3.0 5.0 0.00 0.00 0.00 83 1008.9
20260505032329 60 60 3.0 5.0 0.00 0.00 0.00 83 1009.0
20260505031822 60 46 2.0 3.0 0.00 0.00 0.00 83 1009.2
20260505031323 60 44 1.0 3.0 0.00 0.00 0.00 83 1009.4
20260505030843 60 62 1.0 3.0 0.00 0.00 0.00 83 1009.4
20260505030344 60 62 1.0 3.0 0.00 0.00 0.00 83 1009.5
20260505025826 60 62 1.0 3.0 0.00 0.00 0.00 83 1009.5
20260505025348 60 65 2.0 4.0 0.00 0.00 0.00 83 1009.4
20260505024830 60 65 2.0 5.0 0.00 0.00 0.00 83 1009.4
20260505024313 60 50 3.0 5.0 0.00 0.00 0.00 82 1009.3
20260505023815 60 59 3.0 6.0 0.00 0.00 0.00 82 1009.3
20260505023318 60 53 3.0 6.0 0.00 0.00 0.00 82 1009.4
20260505022819 60 58 3.0 5.0 0.00 0.00 0.00 82 1009.4
20260505022341 60 61 2.0 3.0 0.00 0.00 0.00 83 1009.5
20260505021822 60 80 0.0 2.0 0.00 0.00 0.00 82 1009.5
20260505021324 60 80 0.0 2.0 0.00 0.00 0.00 83 1009.5
20260505020847 60 80 1.0 3.0 0.00 0.00 0.00 83 1009.6
20260505020346 60 80 1.0 3.0 0.00 0.00 0.00 83 1009.6
20260505015825 59 122 1.0 3.0 0.00 0.00 0.00 84 1009.6
20260505015328 59 20 0.0 1.0 0.00 0.00 0.00 85 1009.6
20260505014829 59 20 0.0 0.0 0.00 0.00 0.00 85 1009.7
20260505014312 59 20 0.0 0.0 0.00 0.00 0.00 85 1009.6
20260505013836 59 20 0.0 2.0 0.00 0.00 0.00 85 1009.7
20260505013338 59 20 0.0 3.0 0.00 0.00 0.00 85 1009.7
20260505012818 59 13 1.0 2.0 0.00 0.00 0.00 85 1009.7
20260505012321 59 2 0.0 3.0 0.00 0.00 0.00 84 1009.7
20260505011823 59 1 1.0 3.0 0.00 0.00 0.00 84 1009.7
20260505011325 59 16 1.0 2.0 0.00 0.00 0.00 85 1009.7
20260505010826 59 22 0.0 0.0 0.00 0.00 0.00 85 1009.9
20260505010325 59 22 0.0 0.0 0.00 0.00 0.00 85 1010.1
20260505005826 59 22 0.0 1.0 0.00 0.00 0.00 85 1010.1
20260505005326 59 22 0.0 2.0 0.00 0.00 0.00 85 1010.1
20260505004847 59 22 0.0 0.0 0.00 0.00 0.00 85 1010.2
20260505004326 60 22 0.0 0.0 0.00 0.00 0.00 85 1010.2
20260505003826 59 22 0.0 0.0 0.00 0.00 0.00 85 1010.2
20260505003327 59 22 0.0 0.0 0.00 0.00 0.00 84 1010.2
20260505002830 60 22 0.0 0.0 0.00 0.00 0.00 84 1010.2
20260505002331 60 22 0.0 0.0 0.00 0.00 0.00 84 1010.3
20260505001813 60 22 0.0 0.0 0.00 0.00 0.00 83 1010.3
20260505001313 60 22 0.0 0.0 0.00 0.00 0.00 83 1010.3
20260505000813 61 22 0.0 1.0 0.00 0.00 0.00 83 1010.4
20260505000314 61 22 0.0 1.0 0.00 0.00 0.00 83 1010.5
20260504235833 61 22 0.0 1.0 0.00 0.00 0.00 83 1010.4
20260504235332 61 22 0.0 1.0 0.00 0.00 0.00 83 1010.5
20260504234813 61 22 0.0 3.0 0.00 0.00 0.00 83 1010.4
20260504234315 61 22 0.0 3.0 0.00 0.00 0.00 83 1010.3
20260504233321 61 20 2.0 3.0 0.00 0.00 0.00 81 1010.4
20260504232821 61 65 2.0 3.0 0.00 0.00 0.00 79 1010.5
20260504232323 60 68 2.0 3.0 0.00 0.00 0.00 80 1010.5
20260504231824 60 358 2.0 3.0 0.00 0.00 0.00 82 1010.6
20260504231327 60 241 0.0 2.0 0.00 0.00 0.00 81 1010.5
20260504230850 60 222 0.0 2.0 0.00 0.00 0.00 81 1010.7
20260504230323 60 222 0.0 3.0 0.00 0.00 0.00 81 1010.7
20260504225825 60 223 2.0 3.0 0.00 0.00 0.00 82 1010.8
20260504224819 61 141 0.0 1.0 0.00 0.00 0.00 82 1010.8
20260504224344 61 141 1.0 2.0 0.00 0.00 0.00 81 1010.7
20260504223825 61 148 1.0 2.0 0.00 0.00 0.00 81 1010.6
20260504223327 61 308 0.0 1.0 0.00 0.00 0.00 81 1010.6
20260504222829 61 308 0.0 0.0 0.00 0.00 0.00 80 1010.7
20260504222333 61 308 0.0 0.0 0.00 0.00 0.00 79 1010.8
20260504221813 61 308 0.0 0.0 0.00 0.00 0.00 78 1010.8
20260504220823 61 307 0.0 0.0 0.00 0.00 0.00 78 1010.9
20260504220325 61 308 0.0 0.0 0.00 0.00 0.00 78 1010.8
20260504215826 61 308 0.0 0.0 0.00 0.00 0.00 78 1010.9
20260504215326 61 308 0.0 0.0 0.00 0.00 0.00 77 1011.0
20260504214826 61 308 0.0 0.0 0.00 0.00 0.00 77 1010.9
20260504214326 61 308 0.0 0.0 0.00 0.00 0.00 77 1010.9
20260504213828 61 308 0.0 0.0 0.00 0.00 0.00 76 1011.0
20260504213330 62 308 0.0 0.0 0.00 0.00 0.00 77 1010.9
20260504212813 61 308 0.0 0.0 0.00 0.00 0.00 77 1010.9
20260504212316 61 308 0.0 1.0 0.00 0.00 0.00 76 1011.0
20260504211818 61 308 0.0 1.0 0.00 0.00 0.00 75 1010.9
20260504211322 61 308 0.0 0.0 0.00 0.00 0.00 76 1011.0
20260504210824 61 308 0.0 0.0 0.00 0.00 0.00 75 1011.0
20260504210328 61 308 0.0 0.0 0.00 0.00 0.00 75 1011.0
20260504205828 61 307 0.0 0.0 0.00 0.00 0.00 74 1011.0
20260504205329 61 308 0.0 0.0 0.00 0.00 0.00 74 1011.0
20260504204829 62 308 0.0 0.0 0.00 0.00 0.00 74 1011.0
20260504204330 62 308 0.0 0.0 0.00 0.00 0.00 74 1011.0
20260504203812 62 308 0.0 0.0 0.00 0.00 0.00 73 1011.0
20260504203315 62 308 0.0 0.0 0.00 0.00 0.00 73 1011.0
20260504202816 63 308 0.0 0.0 0.00 0.00 0.00 73 1011.0
20260504202320 63 308 0.0 0.0 0.00 0.00 0.00 72 1010.9
20260504201821 63 307 0.0 1.0 0.00 0.00 0.00 71 1010.9
20260504201324 64 308 0.0 2.0 0.00 0.00 0.00 70 1010.9
20260504200825 64 308 0.0 2.0 0.00 0.00 0.00 68 1010.9
20260504200326 64 295 0.0 1.0 0.00 0.00 0.00 68 1010.8
20260504195828 64 295 0.0 1.0 0.00 0.00 0.00 68 1010.9
20260504195330 65 295 0.0 1.0 0.00 0.00 0.00 67 1010.9
20260504194814 65 295 0.0 1.0 0.00 0.00 0.00 67 1011.0
20260504194318 65 295 0.0 1.0 0.00 0.00 0.00 67 1011.0
20260504193828 65 295 0.0 1.0 0.00 0.00 0.00 67 1011.0
20260504193331 65 295 0.0 1.0 0.00 0.00 0.00 67 1011.1
20260504192815 65 295 0.0 0.0 0.00 0.00 0.00 67 1011.0
20260504192319 65 295 0.0 0.0 0.00 0.00 0.00 66 1011.0
20260504191823 65 295 0.0 0.0 0.00 0.00 0.00 66 1011.0
20260504191327 66 295 0.0 0.0 0.00 0.00 0.00 65 1011.0
20260504190831 66 295 0.0 0.0 0.00 0.00 0.00 64 1010.9
20260504190316 67 295 0.0 0.0 0.00 0.00 0.00 64 1010.9
20260504185820 67 295 0.0 0.0 0.00 0.00 0.00 63 1010.8
20260504185321 67 295 0.0 0.0 0.00 0.00 0.00 62 1010.8
20260504184821 68 295 0.0 0.0 0.00 0.00 0.00 61 1010.8
20260504184321 68 295 0.0 0.0 0.00 0.00 0.00 61 1010.8
20260504183822 69 295 0.0 1.0 0.00 0.00 0.00 60 1010.8
20260504183323 69 295 0.0 1.0 0.00 0.00 0.00 60 1010.7
20260504182813 69 295 0.0 1.0 0.00 0.00 0.00 59 1010.7
20260504182313 70 295 0.0 1.0 0.00 0.00 0.00 58 1010.7
20260504181815 70 295 0.0 2.0 0.00 0.00 0.00 58 1010.6
20260504181315 70 295 0.0 2.0 0.00 0.00 0.00 57 1010.7
20260504180819 71 296 1.0 3.0 0.00 0.00 0.00 57 1010.7
20260504180320 71 326 1.0 3.0 0.00 0.00 0.00 56 1010.6
20260504175823 71 324 1.0 4.0 0.00 0.00 0.00 55 1010.6
20260504175326 72 335 1.0 4.0 0.00 0.00 0.00 55 1010.6
20260504174849 72 308 1.0 4.0 0.00 0.00 0.00 54 1010.6
20260504174331 72 305 1.0 4.0 0.00 0.00 0.00 54 1010.5
20260504173848 73 278 0.0 4.0 0.00 0.00 0.00 53 1010.5
20260504173326 73 315 2.0 4.0 0.00 0.00 0.00 52 1010.5
20260504172812 74 295 1.0 4.0 0.00 0.00 0.00 51 1010.5
20260504171817 75 326 1.0 3.0 0.00 0.00 0.00 50 1010.4
20260504171314 75 334 1.0 5.0 0.00 0.00 0.00 49 1010.4
20260504170816 75 314 2.0 7.0 0.00 0.00 0.00 49 1010.5
20260504170319 75 280 3.0 7.0 0.00 0.00 0.00 50 1010.5
20260504160328 75 291 3.0 8.0 0.00 0.00 0.00 47 1010.5
20260504150828 75 248 6.0 15.0 0.00 0.00 0.00 43 1010.6
20260504150329 76 279 5.0 16.0 0.00 0.00 0.00 43 1010.7
20260504141313 77 205 4.0 15.0 0.00 0.00 0.00 42 1010.8
20260504140816 77 252 6.0 15.0 0.00 0.00 0.00 42 1010.9
20260504140319 77 263 5.0 13.0 0.00 0.00 0.00 45 1010.9
20260504130820 77 250 3.0 8.0 0.00 0.00 0.00 46 1011.2
20260504130323 77 250 1.0 9.0 0.00 0.00 0.00 47 1011.2
20260504110327 74 204 2.0 11.0 0.00 0.00 0.00 52 1012.1
20260504100322 70 274 4.0 9.0 0.00 0.00 0.00 54 1012.7
20260504081818 68 338 4.0 12.0 0.00 0.00 0.00 56 1013.0
20260504081319 68 275 6.0 12.0 0.00 0.00 0.00 56 1012.9
20260504080821 69 281 6.0 11.0 0.00 0.00 0.00 55 1012.8
20260504080324 69 224 5.0 11.0 0.00 0.00 0.00 55 1012.8
20260504070327 67 288 2.0 5.0 0.00 0.00 0.00 58 1012.5